Wind_Speed
10 13 14 14 15 14 16 16 15 15 17 15 15 16 16 17 20 19 16 17 17 17 17 16 18 19 17 10 7 5 4 3 1 7 9 12 18 20 22 25 27 23 26
11 12 15 13 14 15 16 16 15 16 17 15 15 15 16 17 18 19 18 17 17 17 17 15 16 18 16 13 7 6 5 5 4 9 8 14 18 20 21 24 27 27 29
10 12 12 12 13 13 13 16 16 17 17 17 16 16 18 17 17 19 17 17 16 15 14 15 17 19 18 15 13 8 6 3 9 13 12 14 18 22 22 24 25 26 23
9 10 11 12 11 11 13 14 15 17 17 17 17 17 17 17 19 16 17 15 16 15 15 13 17 18 21 16 17 12 12 13 21 18 16 13 17 17 15 23 20 20 20
8 9 10 10 10 9 11 12 14 15 17 16 16 18 21 16 17 19 16 15 15 17 21 15 14 17 17 19 20 19 18 19 18 15 13 12 12 9 9 17 21 18 15
6 7 8 10 10 8 10 12 14 14 14 15 17 17 18 17 22 19 18 14 14 14 16 18 14 16 15 17 18 20 19 18 15 12 6 6 7 12 17 16 19 11 3
5 7 8 9 9 7 8 11 15 17 15 16 17 18 18 18 20 20 16 13 13 14 14 16 15 15 13 11 15 18 19 17 13 9 8 7 5 7 12 10 4 6 6
4 6 7 7 7 7 8 11 13 17 17 18 18 17 18 19 25 20 17 16 11 13 16 14 14 15 12 10 10 13 16 17 15 11 8 7 5 9 8 6 3 7 10
2 5 5 6 6 7 8 9 10 13 16 15 16 19 19 19 25 24 21 13 14 13 13 15 13 13 12 8 8 11 12 13 13 13 12 8 5 5 7 6 8 9 3
2 3 4 5 6 7 9 8 9 10 13 14 16 17 19 18 23 24 21 15 15 14 13 14 16 12 13 10 7 7 9 10 9 12 11 10 8 6 6 3 3 3 6
2 3 3 4 5 8 9 9 9 10 14 15 14 17 17 18 20 24 22 16 16 13 14 13 12 13 11 10 8 7 6 6 7 7 9 9 8 8 6 3 2 2 1
2 3 4 6 7 9 11 10 9 9 11 14 14 13 15 17 20 21 21 19 17 14 16 13 11 10 11 10 9 7 5 5 4 4 6 7 6 6 7 7 7 6 4
3 4 5 6 7 9 11 12 9 8 6 9 11 10 12 15 18 20 21 19 19 15 13 12 10 10 9 8 8 7 5 4 5 7 5 6 6 5 5 7 10 12 12
4 4 5 6 8 8 9 11 9 6 5 6 9 12 13 12 16 18 16 18 15 17 13 13 12 13 11 9 8 7 6 5 5 4 4 4 6 6 7 7 8 9 11
3 4 4 5 7 8 9 9 7 6 5 5 7 9 12 14 13 15 14 14 14 12 12 12 18 16 19 14 13 10 7 5 4 5 4 4 4 5 5 4 3 6 8
2 1 2 5 7 8 9 8 7 7 5 4 7 9 12 11 11 14 13 11 11 12 10 12 14 13 13 14 17 13 9 6 4 3 2 2 3 6 6 6 5 6 6
4 3 4 6 6 7 8 9 9 7 7 5 5 7 11 12 9 11 11 8 10 10 10 11 11 12 12 12 12 12 11 10 4 4 2 2 4 5 3 1 3 4 5
3 3 3 6 8 6 5 8 10 10 11 9 4 6 11 8 9 10 11 8 8 10 9 9 9 10 11 12 15 14 13 10 7 5 3 1 2 4 4 3 3 4 3
4 4 5 7 7 6 6 9 9 10 9 9 10 8 8 8 7 9 11 9 8 8 8 8 9 8 10 10 11 13 12 10 9 6 4 2 3 4 4 4 3 4 5
5 6 9 9 7 6 9 9 11 11 11 11 13 12 9 10 8 9 8 9 9 9 8 7 9 8 9 11 10 11 10 9 10 7 6 5 4 5 7 4 5 5 6
6 6 9 9 6 4 5 6 9 10 10 11 12 10 8 8 8 8 8 10 10 10 9 9 10 8 8 9 11 11 10 9 9 9 8 8 6 3 4 5 5 6 6
9 9 9 7 4 4 3 6 6 9 9 10 11 10 9 8 9 9 8 11 11 12 11 8 9 8 8 11 11 11 11 10 9 10 8 9 5 4 3 5 7 6 8
8 8 8 8 7 7 6 5 5 7 9 9 8 9 11 10 9 8 9 10 12 11 14 10 9 9 9 10 14 9 10 10 11 12 9 10 8 6 6 6 6 8 9
8 9 9 7 8 7 5 6 6 6 8 8 6 7 9 10 7 6 9 12 15 12 12 10 9 10 12 12 11 9 10 12 12 11 11 10 9 6 6 6 7 7 7
7 8 9 8 4 3 3 4 6 7 8 8 6 8 9 7 6 8 12 14 16 12 12 10 10 11 11 11 9 10 12 12 12 12 11 12 8 6 7 6 6 7 9
4 4 4 3 3 4 5 7 8 8 8 8 8 8 8 6 7 9 12 16 15 13 12 11 10 11 11 9 11 10 11 12 12 13 11 10 7 7 7 8 9 8 8
Wind_Direction
10 8 10 10 12 12 8 7 6 3 360 360 359 3 4 3 7 8 5 360 358 360 3 360 2 5 358 351 335 316 277 237 242 76 97 91 92 92 90 89 88 79 78
4 9 12 16 18 15 15 13 9 6 5 6 5 4 10 15 11 12 11 9 4 359 359 2 1 1 1 1 346 334 290 245 190 121 102 96 92 99 100 92 87 80 79
0 2 9 16 19 19 12 7 8 9 10 13 12 12 14 13 16 16 18 12 9 4 6 3 4 3 2 10 15 359 342 259 171 134 121 108 104 102 101 97 91 95 87
8 17 19 16 13 11 3 9 19 21 23 22 19 19 13 13 13 2 6 14 17 17 25 13 13 10 12 20 30 37 60 97 121 118 114 108 106 109 103 97 84 89 84
29 27 21 13 7 0 9 8 8 13 18 18 14 17 23 18 11 11 10 18 18 18 27 24 14 14 21 29 34 51 69 85 96 97 101 117 111 105 102 108 105 97 90
18 16 8 6 4 10 10 9 10 9 9 11 14 14 12 14 18 19 20 16 22 20 16 17 20 21 23 37 47 53 60 77 93 98 91 90 87 114 121 121 126 119 92
357 359 1 3 8 15 12 11 9 14 14 15 16 17 18 14 13 16 15 23 22 22 23 23 23 21 28 35 46 58 65 64 72 87 87 86 115 139 149 150 142 128 127
358 8 7 9 16 9 4 8 8 15 16 14 15 15 15 15 18 15 18 21 17 26 23 22 24 22 27 28 56 56 54 54 54 61 68 72 99 161 172 171 165 134 137
353 356 353 351 348 339 344 348 354 10 17 13 16 14 10 11 17 17 17 13 22 25 23 26 27 26 27 30 49 65 59 59 53 60 62 67 100 139 167 151 150 154 114
326 335 331 324 332 345 346 340 350 2 7 13 18 24 21 14 13 16 16 14 14 12 20 26 29 35 31 41 46 57 61 47 56 61 63 65 79 109 150 149 186 169 149
276 308 309 325 326 335 342 348 352 356 360 8 15 19 18 12 9 15 16 9 12 8 12 15 25 34 36 41 54 43 50 59 55 48 43 40 47 53 63 76 183 154 51
262 290 299 308 314 322 323 317 325 341 357 8 9 12 12 7 8 15 19 18 18 14 13 14 18 28 39 49 52 58 65 60 57 51 52 42 49 56 59 61 70 77 75
264 278 292 309 310 321 330 329 307 319 343 3 359 356 5 6 7 12 14 18 19 18 16 27 26 35 37 37 41 43 51 44 37 63 60 53 59 71 72 78 79 85 89
275 279 293 306 317 327 337 336 327 311 317 346 3 359 357 3 5 2 2 2 12 23 20 33 34 36 44 40 33 29 33 32 33 47 63 67 89 76 74 87 88 86 82
265 283 295 306 319 336 350 353 337 338 306 317 344 345 348 354 358 2 359 4 6 9 23 24 32 28 31 24 32 34 33 30 29 28 34 56 79 80 88 117 88 94 108
283 333 339 334 346 345 340 346 355 360 352 304 331 339 342 332 346 0 4 3 14 24 22 29 26 21 20 16 19 20 29 34 28 25 51 84 110 119 100 91 101 115 116
307 271 312 323 330 340 343 342 343 342 347 319 330 347 343 349 357 1 6 7 12 25 31 20 15 16 13 15 12 12 11 22 25 40 41 95 149 162 141 120 163 177 172
281 246 315 314 320 313 318 336 333 326 321 331 324 340 353 3 8 6 4 6 13 20 19 15 10 10 9 7 8 9 12 11 19 22 5 51 181 208 222 227 181 167 176
205 242 265 295 338 348 337 328 332 337 336 337 337 335 0 0 8 5 11 11 8 14 14 8 360 354 360 359 358 0 1 359 360 351 342 300 248 238 222 219 199 179 188
265 275 283 299 322 355 2 360 357 351 346 350 348 345 353 352 356 0 2 4 357 356 1 2 356 344 344 353 350 349 348 351 347 346 337 324 303 272 239 229 197 198 204
273 287 303 288 299 325 343 351 350 343 344 351 346 352 341 340 336 339 347 351 347 333 335 336 347 348 345 342 347 347 345 341 344 337 326 335 316 295 248 236 218 212 209
263 288 296 270 269 275 297 321 325 334 338 344 348 357 348 340 339 336 339 342 353 357 339 324 332 341 344 344 342 335 335 336 337 341 325 319 329 305 275 246 225 213 212
259 277 294 274 262 273 287 301 320 334 337 336 345 357 351 342 336 340 347 355 354 349 344 333 325 329 331 332 332 330 327 328 327 324 321 313 309 294 281 262 240 214 216
259 282 304 303 272 274 303 321 336 342 341 338 341 342 349 346 352 7 5 356 350 347 344 342 333 332 330 329 326 328 324 322 324 324 321 309 305 301 300 288 251 230 212
266 284 298 307 304 298 319 342 341 344 346 348 353 353 355 1 4 360 353 351 350 347 342 340 336 336 336 335 335 331 327 323 325 326 320 314 300 305 304 299 278 219 200
318 328 348 15 43 52 19 354 346 344 344 345 355 353 348 349 345 349 348 346 348 341 340 337 335 338 340 338 329 334 335 330 328 329 322 299 302 298 310 298 306 279 229
Height
862 859 856 853 851 848 846 842 839 835 830 827 823 819 815 811 806 801 796 792 788 784 780 776 772 768 764 762 760 758 755 754 753 755 756 757 757 757 758 758 758 761 759
862 860 857 854 852 850 848 844 841 837 833 828 824 820 816 812 808 804 799 795 791 786 782 779 776 772 767 763 759 757 755 753 753 754 759 760 761 761 762 762 762 766 764
863 860 858 856 854 852 850 846 842 839 835 831 826 822 818 813 809 806 802 798 793 789 784 781 777 773 768 763 759 755 752 750 751 754 759 761 763 764 766 767 767 767 770
863 861 860 858 856 853 851 847 844 840 836 833 829 825 820 816 812 808 804 800 796 792 787 784 780 776 771 766 761 758 754 751 753 757 761 764 766 769 771 767 772 775 772
863 862 861 860 857 855 852 848 845 841 838 834 831 826 822 819 815 810 805 801 798 794 789 786 783 780 775 770 764 761 758 757 758 761 764 767 769 771 771 774 776 777 781
865 864 863 861 858 855 853 850 847 843 840 836 832 829 825 821 816 811 807 803 800 796 793 789 786 783 778 774 770 767 765 764 764 766 769 770 772 773 773 775 778 780 782
866 865 864 862 860 857 854 852 848 844 840 837 834 830 826 822 817 813 808 805 802 798 795 792 788 785 782 779 777 774 771 770 770 771 771 772 774 775 776 777 778 779 783
866 865 864 862 861 859 857 853 850 846 843 839 835 832 828 824 819 814 810 807 803 800 797 795 791 788 785 783 781 779 777 776 775 775 775 776 776 777 778 779 780 781 783
865 864 863 862 861 859 857 854 851 848 844 841 837 833 829 825 820 816 811 808 805 802 799 796 793 791 788 786 784 783 783 782 781 779 778 777 778 777 778 779 780 781 783
864 863 863 862 861 859 855 853 851 848 845 842 839 834 830 827 822 818 813 810 807 804 801 799 796 793 791 789 787 786 786 786 785 784 782 781 780 780 780 780 781 780 782
863 863 862 862 860 858 855 853 851 849 846 842 839 836 832 829 825 820 816 812 808 806 803 800 799 796 794 792 790 789 789 788 787 787 785 785 784 782 781 781 781 782 782
861 861 861 861 859 856 855 853 851 848 846 843 840 837 834 830 827 822 819 815 811 808 804 802 800 798 796 794 793 792 791 791 790 789 788 788 787 786 786 785 784 784 785
860 860 859 858 857 855 853 851 850 848 846 843 840 838 835 832 828 824 820 816 813 810 807 804 801 799 798 797 795 794 793 792 791 791 791 790 789 789 788 788 787 787 787
858 857 857 856 855 853 851 850 848 846 845 843 841 838 836 832 830 826 822 819 815 812 810 806 804 801 799 797 795 794 794 793 792 792 792 791 791 790 790 790 790 791 791
856 855 854 854 853 851 850 849 847 845 843 842 841 839 836 833 832 828 824 821 818 816 812 810 806 803 801 800 797 796 795 794 793 792 792 791 791 791 791 792 792 793 793
855 854 853 852 852 850 849 847 846 844 842 841 841 839 837 834 832 829 825 823 820 816 815 812 810 808 806 804 800 798 796 795 795 794 793 793 793 793 793 793 793 793 794
854 853 852 851 850 849 847 846 844 843 841 840 840 838 836 833 831 828 826 823 821 818 816 814 813 811 809 806 804 801 798 796 795 795 794 794 794 794 794 795 795 795 796
854 853 853 851 849 847 846 845 843 841 840 839 838 837 835 833 830 828 826 824 822 819 819 817 815 812 810 808 805 802 799 797 796 795 794 794 794 794 795 795 795 795 795
853 852 852 850 848 846 845 843 841 840 839 838 836 835 834 832 830 829 827 825 823 821 819 817 816 813 810 808 805 803 800 798 796 794 794 793 793 794 794 794 794 794 794
852 851 850 849 848 846 844 843 842 840 838 836 835 833 833 832 830 829 827 825 823 821 819 817 815 813 811 808 806 803 801 799 796 794 793 792 792 791 791 792 792 793 793
850 849 848 847 846 846 845 844 842 840 838 836 836 833 833 832 830 829 827 825 823 821 819 817 814 813 811 809 806 804 802 799 797 795 793 791 789 789 789 789 790 791 791
848 847 846 845 845 844 843 842 841 839 837 836 834 833 832 831 829 828 826 825 822 820 818 816 814 812 810 808 806 804 801 798 796 795 793 790 788 789 788 788 787 788 789
846 846 844 843 843 842 841 840 839 837 836 834 834 833 832 830 828 827 825 824 822 820 817 815 813 811 810 808 804 803 800 798 795 792 790 788 787 787 786 786 784 785 785
843 844 843 841 840 840 840 840 838 837 835 833 833 833 831 829 828 826 825 823 821 818 816 814 813 811 809 806 804 801 798 795 793 790 788 786 784 784 783 783 782 781 781
842 841 841 840 839 838 839 838 837 836 834 833 832 832 831 829 828 826 825 822 819 817 815 813 811 808 806 804 801 798 795 793 791 788 785 783 782 782 780 781 779 777 778
841 840 839 839 839 839 839 838 837 835 834 833 833 832 831 829 828 826 824 821 818 816 814 811 809 807 804 802 798 795 793 791 789 786 784 781 780 780 779 779 777 775 775